Change the Weather History Date:

Friday, June 14, 2013

  Actual Average (KBGD) Record (KBGD)
Temperature  
Mean Temperature 79 °F 77 °F  
Max Temperature 92 °F 89 °F 104 °F (1953)
Min Temperature 66 °F 64 °F 49 °F (1969)
Degree Days  
Heating Degree Days 0 0  
Month to date heating degree days 0  
Since 1 June heating degree days 0  
Since 1 July heating degree days 3763  
Cooling Degree Days 14 12  
Month to date cooling degree days 140  
Year to date cooling degree days 337  
Since 1 June cooling degree days 140  
Growing Degree Days 29 (Base 50)    
Moisture  
Dew Point 55 °F    
Average Humidity 49    
Maximum Humidity 85    
Minimum Humidity 17    
Precipitation  
Precipitation 0.00 in 0.12 in 1.12 in (1964)
Month to date precipitation 1.57  
Year to date precipitation 8.62  
Snow  
Snow 0.00 in - T in (1955)
Month to date snowfall  
Since 1 June snowfall  
Since 1 July snowfall  
Snow Depth -    
Sea Level Pressure  
Sea Level Pressure 30.03 in    
Wind  
Wind Speed 14 mph (South)    
Max Wind Speed 30 mph    
Max Gust Speed 38 mph    
Visibility 10 miles    
Events      
T = Trace of Precipitation, MM = Missing Value Source: NWS Daily Summary

Daily Weather History Graph

Daily Weather History Graph

Search for Another Location

Airport or City:

Trip Planner

Search our weather history database for the weather conditions in past years. The results will help you decide how hot, cold, wet, or windy it might be!

Date:

Astronomy

Jun. 14, 2013 Rise Set
Actual Time 6:31 AM CDT 9:05 PM CDT
Civil Twilight 6:01 AM CDT 9:35 PM CDT
Nautical Twilight 5:23 AM CDT 10:13 PM CDT
Astronomical Twilight 4:42 AM CDT 10:54 PM CDT
Moon 11:58 AM CDT (6/14) 12:21 AM CDT (6/14)
Length of Visible Light 15h 34m
Length of Day
14h 34m
Waxing Crescent, 30% of the Moon is Illuminated
Jun 14
Waxing Crescent
Jun 16
First Quarter
Jun 23
Full
Jun 29
Last Quarter
Jul 8
New

Hourly Weather History & Observations

Time (CDT) Temp. Heat Index Dew Point Humidity Pressure Visibility Wind Dir Wind Speed Gust Speed Precip Events Conditions
12:15 AM 77.0 °F - 56.7 °F 49% 30.07 in 10.0 mi SSE 11.5 mph - N/A   Clear
12:35 AM 76.3 °F - 56.8 °F 51% 30.07 in 10.0 mi SSE 11.5 mph - N/A   Clear
12:55 AM 75.4 °F - 56.8 °F 52% 30.07 in 10.0 mi South 11.5 mph - N/A   Clear
1:15 AM 73.6 °F - 56.7 °F 55% 30.07 in 10.0 mi South 9.2 mph - N/A   Clear
1:35 AM 71.2 °F - 56.5 °F 60% 30.07 in 10.0 mi South 9.2 mph - N/A   Clear
1:55 AM 71.1 °F - 56.5 °F 60% 30.07 in 10.0 mi South 9.2 mph - N/A   Clear
2:15 AM 70.3 °F - 56.3 °F 61% 30.06 in 10.0 mi South 8.1 mph - N/A   Clear
2:35 AM 69.1 °F - 56.1 °F 63% 30.06 in 10.0 mi South 9.2 mph - N/A   Clear
2:55 AM 68.9 °F - 55.9 °F 63% 30.06 in 10.0 mi South 8.1 mph - N/A   Clear
3:15 AM 69.6 °F - 55.9 °F 62% 30.05 in 10.0 mi South 9.2 mph - N/A   Clear
3:35 AM 70.5 °F - 56.1 °F 60% 30.05 in 10.0 mi SSW 10.4 mph - N/A   Mostly Cloudy
3:55 AM 70.7 °F - 56.8 °F 61% 30.05 in 10.0 mi SSW 13.8 mph - N/A   Overcast
4:15 AM 70.7 °F - 57.4 °F 63% 30.05 in 10.0 mi SSW 12.7 mph - N/A   Overcast
4:35 AM 70.9 °F - 58.1 °F 64% 30.04 in 10.0 mi SSW 11.5 mph - N/A   Overcast
4:55 AM 69.8 °F - 58.1 °F 66% 30.04 in 10.0 mi SW 11.5 mph - N/A   Overcast
5:15 AM 68.5 °F - 57.7 °F 68% 30.04 in 10.0 mi SW 8.1 mph - N/A   Overcast
5:35 AM 68.7 °F - 58.1 °F 69% 30.04 in 10.0 mi SSW 10.4 mph - N/A   Mostly Cloudy
5:55 AM 67.5 °F - 58.1 °F 72% 30.05 in 10.0 mi SW 10.4 mph - N/A   Mostly Cloudy
6:15 AM 67.3 °F - 57.9 °F 72% 30.05 in 10.0 mi SW 8.1 mph - N/A   Scattered Clouds
6:35 AM 66.2 °F - 57.7 °F 74% 30.05 in 10.0 mi SW 8.1 mph - N/A   Scattered Clouds
6:55 AM 67.1 °F - 58.1 °F 73% 30.06 in 10.0 mi SW 6.9 mph - N/A   Scattered Clouds
7:15 AM 68.0 °F - 58.5 °F 71% 30.06 in 10.0 mi SSW 8.1 mph - N/A   Scattered Clouds
7:35 AM 69.6 °F - 59.2 °F 69% 30.06 in 10.0 mi South 5.8 mph - N/A   Clear
7:55 AM 72.1 °F - 59.0 °F 63% 30.06 in 10.0 mi SSW 8.1 mph - N/A   Clear
8:15 AM 73.6 °F - 58.8 °F 60% 30.06 in 10.0 mi SSW 10.4 mph - N/A   Clear
8:35 AM 75.7 °F - 58.3 °F 55% 30.07 in 10.0 mi SW 10.4 mph - N/A   Clear
8:55 AM 77.4 °F - 57.7 °F 51% 30.07 in 10.0 mi SSW 11.5 mph - N/A   Clear
9:15 AM 78.8 °F - 56.8 °F 47% 30.06 in 10.0 mi SSW 12.7 mph - N/A   Clear
9:35 AM 80.6 °F 80.6 °F 56.5 °F 43% 30.07 in 10.0 mi SSW 13.8 mph - N/A   Clear
9:55 AM 81.0 °F 80.6 °F 54.5 °F 40% 30.07 in 10.0 mi South 16.1 mph - N/A   Clear
10:15 AM 81.7 °F 81.3 °F 55.6 °F 41% 30.07 in 10.0 mi South 18.4 mph - N/A   Clear
10:35 AM 83.3 °F 82.3 °F 55.0 °F 38% 30.06 in 10.0 mi South 18.4 mph - N/A   Clear
10:55 AM 83.1 °F 82.3 °F 55.8 °F 39% 30.06 in 10.0 mi SSE 18.4 mph 21.9 mph N/A   Clear
11:15 AM 83.7 °F 82.8 °F 55.9 °F 39% 30.06 in 10.0 mi South 17.3 mph - N/A   Clear
11:35 AM 84.0 °F 82.9 °F 55.2 °F 37% 30.06 in 10.0 mi South 21.9 mph 26.5 mph N/A   Clear
11:55 AM 86.0 °F 84.7 °F 55.9 °F 36% 30.05 in 10.0 mi South 19.6 mph 27.6 mph N/A   Clear
12:15 PM 87.1 °F 85.5 °F 55.6 °F 34% 30.06 in 10.0 mi SSW 24.2 mph 31.1 mph N/A   Clear
12:35 PM 87.1 °F 85.5 °F 55.4 °F 34% 30.05 in 10.0 mi SSW 21.9 mph 29.9 mph N/A   Clear
12:55 PM 88.5 °F 86.7 °F 54.9 °F 32% 30.04 in 10.0 mi South 20.7 mph 33.4 mph N/A   Clear
1:15 PM 88.0 °F - 52.0 °F 29% 30.05 in 10.0 mi SSW 24.2 mph 33.4 mph N/A   Clear
1:35 PM 87.8 °F 86.1 °F 55.4 °F 33% 30.04 in 10.0 mi South 24.2 mph 29.9 mph N/A   Clear
1:55 PM 90.0 °F 87.7 °F 53.6 °F 29% 30.04 in 10.0 mi South 23.0 mph 33.4 mph N/A   Clear
2:15 PM 88.9 °F - 50.7 °F 27% 30.03 in 10.0 mi South 24.2 mph 32.2 mph N/A   Clear
2:35 PM 88.7 °F - 49.1 °F 25% 30.02 in 10.0 mi South 25.3 mph 33.4 mph N/A   Clear
2:55 PM 89.6 °F - 47.8 °F 24% 30.02 in 10.0 mi South 24.2 mph 33.4 mph N/A   Clear
3:15 PM 91.6 °F - 43.5 °F 19% 30.00 in 10.0 mi South 24.2 mph 31.1 mph N/A   Clear
3:35 PM 92.3 °F - 43.9 °F 19% 29.99 in 10.0 mi South 21.9 mph 32.2 mph N/A   Clear
3:55 PM 90.5 °F - 45.9 °F 21% 29.99 in 10.0 mi South 25.3 mph 29.9 mph N/A   Clear
4:15 PM 88.7 °F - 42.4 °F 20% 29.98 in 10.0 mi South 19.6 mph 29.9 mph N/A   Clear
4:35 PM 90.0 °F - 39.4 °F 17% 29.98 in 10.0 mi South 19.6 mph 33.4 mph N/A   Clear
4:55 PM 87.6 °F - 51.3 °F 29% 29.98 in 10.0 mi South 29.9 mph 38.0 mph N/A   Clear
5:15 PM 88.9 °F - 48.2 °F 25% 29.98 in 10.0 mi South 21.9 mph 33.4 mph N/A   Clear
5:35 PM 85.3 °F - 45.1 °F 25% 29.97 in 10.0 mi SSE 26.5 mph 29.9 mph N/A   Clear
5:55 PM 84.4 °F - 48.4 °F 29% 29.97 in 10.0 mi South 21.9 mph 31.1 mph N/A   Clear
6:15 PM 83.3 °F - 47.5 °F 29% 29.98 in 10.0 mi SSE 16.1 mph 27.6 mph N/A   Clear
6:35 PM 82.4 °F - 50.0 °F 32% 29.98 in 10.0 mi SSE 18.4 mph - N/A   Clear
6:55 PM 81.5 °F - 51.6 °F 35% 29.99 in 10.0 mi SSE 19.6 mph 25.3 mph N/A   Clear
7:15 PM 80.8 °F - 52.5 °F 37% 30.00 in 10.0 mi SSE 17.3 mph 24.2 mph N/A   Scattered Clouds
7:35 PM 79.7 °F - 54.0 °F 41% 30.01 in 10.0 mi South 18.4 mph - N/A   Scattered Clouds
7:55 PM 78.6 °F - 51.4 °F 39% 30.01 in 10.0 mi SSE 17.3 mph - N/A   Scattered Clouds
8:15 PM 77.9 °F - 50.9 °F 39% 30.01 in 10.0 mi SSE 18.4 mph 21.9 mph N/A   Clear
8:35 PM 77.0 °F - 50.7 °F 40% 30.02 in 10.0 mi SSE 15.0 mph 19.6 mph N/A   Clear
8:55 PM 76.1 °F - 54.1 °F 46% 30.02 in 10.0 mi South 15.0 mph 20.7 mph N/A   Clear
9:15 PM 75.4 °F - 55.0 °F 49% 30.02 in 10.0 mi South 12.7 mph - N/A   Clear
9:35 PM 74.1 °F - 55.9 °F 53% 30.02 in 10.0 mi South 16.1 mph - N/A   Scattered Clouds
9:55 PM 72.7 °F - 57.7 °F 59% 30.02 in 10.0 mi South 19.6 mph 23.0 mph N/A   Clear
10:15 PM 71.6 °F - 60.8 °F 69% 30.03 in 10.0 mi South 18.4 mph 23.0 mph N/A   Clear
10:35 PM 69.6 °F - 61.7 °F 76% 30.03 in 10.0 mi SSE 18.4 mph - N/A   Clear
10:55 PM 67.5 °F - 62.8 °F 85% 30.02 in 10.0 mi SSE 19.6 mph - N/A   Clear
11:15 PM 66.7 °F - 61.7 °F 84% 30.00 in 10.0 mi SSE 21.9 mph 26.5 mph N/A   Clear
11:35 PM 66.4 °F - 61.3 °F 84% 30.01 in 10.0 mi SSE 19.6 mph 25.3 mph N/A   Clear
11:55 PM 66.2 °F - 61.7 °F 85% 30.01 in 10.0 mi SSE 17.3 mph 23.0 mph N/A   Clear